Regional Weather Roundup
Issued by NWS Little Rock, AR

Home | Current Version | Previous Version | Text Only | Print | Product List | Glossary Off
Versions: 1 2 3 4 5 6 7 8 9 10 11 12 13 14 15 16 17 18 19 20 21 22 23 24 25 26 27 28 29 30 31

000
ASUS44 KLZK 212105
RWRLZK

WEATHER ROUNDUP FOR ARKANSAS
NATIONAL WEATHER SERVICE LITTLE ROCK AR
400 PM CDT SAT OCT 21 2017

NOTE: "FAIR" INDICATES FEW OR NO CLOUDS BELOW 12,000 FEET WITH NO
SIGNIFICANT WEATHER AND/OR OBSTRUCTIONS TO VISIBILITY.

ARZ001-003-010-029-212200-
NORTHWEST ARKANSAS

CITY           SKY/WX    TMP DP  RH WIND       PRES   REMARKS
FAYETTEVILLE   MOSUNNY   76  66  71 S15G28    29.92S
FORT SMITH     MOSUNNY   83  64  52 S10G20    29.90S
HARRISON       CLOUDY    74  64  71 S16       29.98S
BENTONVILLE    PTSUNNY   77  63  61 S14G22    29.93S
ROGERS         PTSUNNY   77  63  61 S18G26    29.92F
SILOAM SPGS    MOSUNNY   78  62  57 S24G30    29.91S
HIGHFILL       PTSUNNY   78  63  59 S16G26    29.91S
SPRINGDALE     PTSUNNY   77  64  65 S18G29    29.93F
$$

ARZ004-005-016-212200-
NORTH CENTRAL ARKANSAS

CITY           SKY/WX    TMP DP  RH WIND       PRES   REMARKS
BATESVILLE     CLOUDY    75  69  81 E3        30.00F
FLIPPIN        CLOUDY    73  65  75 VRB6      29.99S
MTN HOME       CLOUDY    72  66  81 SW8       29.98S
$$

ARZ040-041-212200-
WEST CENTRAL ARKANSAS

CITY           SKY/WX    TMP DP  RH WIND       PRES   REMARKS
MENA           PTSUNNY   81  70  69 SE3       29.95F
$$

ARZ009-017-025-026-028-212200-
NORTHEAST ARKANSAS

CITY           SKY/WX    TMP DP  RH WIND       PRES   REMARKS
CORNING        FAIR      84  64  51 S13G21    30.01F HX  86
JONESBORO      MOSUNNY   86  64  47 S17       30.01F HX  87
NEWPORT        MOSUNNY   82  64  54 SE18      29.99F
WALNUT RIDGE   MOSUNNY   84  63  49 S16       30.00F HX  85
BLYTHEVILLE    MOSUNNY   82  62  50 S15G26    30.06S
$$

ARZ022-023-033-042-044-212200-
CENTRAL ARKANSAS

CITY           SKY/WX    TMP DP  RH WIND       PRES   REMARKS
LITTLE ROCK    LGT RAIN  76  73  91 SE6       29.99F
N LITTLE ROCK    N/A     80  70  70 S7        29.99F
JACKSONVILLE   TSTM      79  72  78 S5        29.98F
SEARCY         CLOUDY    80  69  69 S9        29.99F
HOT SPRINGS    CLOUDY    79  69  71 SE10      29.97F
RUSSELLVILLE   CLOUDY    76  68  76 VRB6      29.96F
CLINTON        CLOUDY    73  70  88 SE7       30.00S
$$

ARZ036-212200-
EAST ARKANSAS

CITY           SKY/WX    TMP DP  RH WIND       PRES   REMARKS
WEST MEMPHIS   LGT RAIN  82  63  52 SE17      30.03F
$$

ARZ050-053-066-070-073-212200-
SOUTHWEST ARKANSAS

CITY           SKY/WX    TMP DP  RH WIND       PRES   REMARKS
ARKADELPHIA    MOCLDY    82  70  66 SE7       29.96F HX  86
CAMDEN         PTSUNNY   84  68  58 S7        29.96F HX  87
TEXARKANA      PTSUNNY   84  66  54 S9G20     29.92F HX  86
EL DORADO      CLOUDY    83  73  72 VRB6      29.97F HX  89
DE QUEEN       MOSUNNY   84  69  60 S10       29.90F HX  88
$$

ARZ056-057-069-212200-
SOUTHEAST ARKANSAS

CITY           SKY/WX    TMP DP  RH WIND       PRES   REMARKS
PINE BLUFF     PTSUNNY   83  66  56 S12       29.99S HX  85
STUTTGART      CLOUDY    84  66  54 S18       30.00F HX  86
MONTICELLO     CLOUDY    81  70  69 E5        29.98F

$$






USA.gov is the U.S. government's official web portal to all federal, state and local government web resources and services.